TimePST,TemperatureF,Dew PointF,Humidity,Sea Level PressureIn,VisibilityMPH,Wind Direction,Wind SpeedMPH,Gust SpeedMPH,PrecipitationIn,Events,Conditions,WindDirDegrees,DateUTC
12:15 AM,55.4,23.0,29,30.07,10.0,East,6.9,-,N/A,,Clear,90,2012-11-15 08:15:00
12:35 AM,55.4,21.2,26,30.07,10.0,East,6.9,-,N/A,,Clear,100,2012-11-15 08:35:00
12:55 AM,55.4,19.4,25,30.07,10.0,Calm,Calm,-,N/A,,Clear,0,2012-11-15 08:55:00
1:15 AM,55.4,17.6,23,30.07,10.0,Calm,Calm,-,N/A,,Clear,0,2012-11-15 09:15:00
1:55 AM,50.0,21.2,32,30.07,10.0,Calm,Calm,-,N/A,,Clear,0,2012-11-15 09:55:00
2:15 AM,50.0,19.4,30,30.07,10.0,ESE,4.6,-,N/A,,Clear,110,2012-11-15 10:15:00
2:35 AM,50.0,19.4,30,30.06,10.0,Calm,Calm,-,N/A,,Clear,0,2012-11-15 10:35:00
2:55 AM,50.0,19.4,30,30.05,10.0,Calm,Calm,-,N/A,,Clear,0,2012-11-15 10:55:00
3:15 AM,50.0,19.4,30,30.05,10.0,East,4.6,-,N/A,,Clear,90,2012-11-15 11:15:00
3:35 AM,50.0,19.4,30,30.05,10.0,Calm,Calm,-,N/A,,Clear,0,2012-11-15 11:35:00
3:55 AM,50.0,19.4,30,30.05,10.0,Calm,Calm,-,N/A,,Clear,0,2012-11-15 11:55:00
4:15 AM,51.8,19.4,28,30.05,10.0,ESE,5.8,-,N/A,,Clear,110,2012-11-15 12:15:00
4:35 AM,50.0,19.4,30,30.05,10.0,East,4.6,-,N/A,,Clear,100,2012-11-15 12:35:00
4:55 AM,51.8,17.6,26,30.05,10.0,ESE,6.9,-,N/A,,Clear,120,2012-11-15 12:55:00
5:15 AM,51.8,17.6,26,30.05,10.0,Calm,Calm,-,N/A,,Clear,0,2012-11-15 13:15:00
5:35 AM,55.4,17.6,23,30.05,10.0,Calm,Calm,-,N/A,,Clear,0,2012-11-15 13:35:00
5:55 AM,53.6,17.6,24,30.04,10.0,Calm,Calm,-,N/A,,Clear,0,2012-11-15 13:55:00
6:15 AM,51.8,19.4,28,30.05,10.0,Calm,Calm,-,N/A,,Clear,0,2012-11-15 14:15:00
6:35 AM,50.0,19.4,30,30.04,10.0,Calm,Calm,-,N/A,,Clear,0,2012-11-15 14:35:00
6:55 AM,53.6,17.6,24,30.05,10.0,Calm,Calm,-,N/A,,Clear,0,2012-11-15 14:55:00
7:15 AM,50.0,19.4,30,30.06,10.0,ESE,3.5,-,N/A,,Clear,110,2012-11-15 15:15:00
7:35 AM,53.6,19.4,26,30.06,10.0,Calm,Calm,-,N/A,,Clear,0,2012-11-15 15:35:00
7:55 AM,55.4,19.4,25,30.07,10.0,Calm,Calm,-,N/A,,Clear,0,2012-11-15 15:55:00
8:15 AM,57.2,19.4,23,30.07,10.0,ESE,4.6,-,N/A,,Clear,110,2012-11-15 16:15:00
8:35 AM,57.2,21.2,25,30.07,10.0,Calm,Calm,-,N/A,,Clear,0,2012-11-15 16:35:00
8:55 AM,57.2,24.8,29,30.08,10.0,Calm,Calm,-,N/A,,Clear,0,2012-11-15 16:55:00
9:15 AM,59.0,24.8,27,30.08,10.0,Calm,Calm,-,N/A,,Clear,0,2012-11-15 17:15:00
9:35 AM,59.0,24.8,27,30.08,10.0,Calm,Calm,-,N/A,,Clear,0,2012-11-15 17:35:00
9:55 AM,62.6,26.6,26,30.09,10.0,Calm,Calm,-,N/A,,Clear,0,2012-11-15 17:55:00
10:15 AM,62.6,26.6,26,30.09,10.0,Calm,Calm,-,N/A,,Clear,0,2012-11-15 18:15:00
10:35 AM,62.6,26.6,26,30.09,10.0,Calm,Calm,-,N/A,,Clear,0,2012-11-15 18:35:00
10:55 AM,64.4,26.6,24,30.08,10.0,South,4.6,-,N/A,,Clear,180,2012-11-15 18:55:00
11:15 AM,66.2,28.4,24,30.07,10.0,South,5.8,-,N/A,,Clear,180,2012-11-15 19:15:00
11:35 AM,68.0,26.6,21,30.06,10.0,SSW,6.9,-,N/A,,Clear,200,2012-11-15 19:35:00
11:55 AM,66.2,26.6,23,30.06,10.0,SSW,6.9,-,N/A,,Clear,200,2012-11-15 19:55:00
12:15 PM,68.0,28.4,23,30.05,10.0,SSW,6.9,-,N/A,,Clear,210,2012-11-15 20:15:00
12:35 PM,64.4,28.4,26,30.05,10.0,Calm,Calm,-,N/A,,Clear,0,2012-11-15 20:35:00
12:55 PM,64.4,28.4,26,30.04,10.0,Calm,Calm,-,N/A,,Clear,0,2012-11-15 20:55:00
1:15 PM,66.2,30.2,26,30.04,10.0,South,3.5,-,N/A,,Clear,180,2012-11-15 21:15:00
1:35 PM,64.4,32.0,30,30.03,10.0,Calm,Calm,-,N/A,,Clear,0,2012-11-15 21:35:00
1:55 PM,66.2,30.2,26,30.02,10.0,Calm,Calm,-,N/A,,Clear,0,2012-11-15 21:55:00
2:15 PM,66.2,32.0,28,30.01,10.0,Calm,Calm,-,N/A,,Clear,0,2012-11-15 22:15:00
2:35 PM,64.4,32.0,30,30.01,10.0,Calm,Calm,-,N/A,,Clear,0,2012-11-15 22:35:00
2:55 PM,62.6,35.6,37,30.01,10.0,SSW,3.5,-,N/A,,Clear,210,2012-11-15 22:55:00
3:15 PM,59.0,37.4,45,30.02,10.0,Calm,Calm,-,N/A,,Clear,0,2012-11-15 23:15:00
3:35 PM,59.0,37.4,45,30.02,10.0,SW,3.5,-,N/A,,Clear,220,2012-11-15 23:35:00
3:55 PM,57.2,33.8,41,30.02,10.0,SSE,4.6,-,N/A,,Clear,160,2012-11-15 23:55:00
4:15 PM,59.0,35.6,42,30.03,10.0,Calm,Calm,-,N/A,,Partly Cloudy,0,2012-11-16 00:15:00
4:35 PM,59.0,32.0,36,30.01,10.0,SE,9.2,-,N/A,,Partly Cloudy,140,2012-11-16 00:35:00
4:55 PM,59.0,32.0,36,30.01,10.0,SE,6.9,-,N/A,,Scattered Clouds,140,2012-11-16 00:55:00
5:35 PM,59.0,24.8,27,30.02,10.0,Calm,Calm,-,N/A,,Clear,0,2012-11-16 01:35:00
5:55 PM,55.4,32.0,41,30.03,10.0,SSW,5.8,-,N/A,,Clear,210,2012-11-16 01:55:00
6:15 PM,55.4,35.6,47,30.04,10.0,Calm,Calm,-,N/A,,Partly Cloudy,0,2012-11-16 02:15:00
6:55 PM,55.4,32.0,41,30.04,10.0,SE,6.9,-,N/A,,Mostly Cloudy,140,2012-11-16 02:55:00
7:15 PM,55.4,30.2,38,30.04,10.0,SSE,11.5,-,N/A,,Mostly Cloudy,150,2012-11-16 03:15:00
7:35 PM,55.4,28.4,36,30.05,10.0,SSE,11.5,-,N/A,,Partly Cloudy,160,2012-11-16 03:35:00
7:55 PM,55.4,26.6,33,30.06,10.0,South,12.7,-,N/A,,Partly Cloudy,170,2012-11-16 03:55:00
8:15 PM,55.4,26.6,33,30.07,10.0,South,10.4,23.0,N/A,,Partly Cloudy,180,2012-11-16 04:15:00
8:35 PM,51.8,32.0,47,30.08,10.0,Calm,Calm,-,N/A,,Clear,0,2012-11-16 04:35:00
8:55 PM,51.8,33.8,50,30.08,10.0,South,6.9,-,N/A,,Clear,180,2012-11-16 04:55:00
9:15 PM,50.0,32.0,50,30.08,10.0,SE,3.5,-,N/A,,Clear,140,2012-11-16 05:15:00
9:35 PM,53.6,28.4,38,30.07,10.0,SSE,5.8,-,N/A,,Clear,150,2012-11-16 05:35:00
9:55 PM,51.8,26.6,38,30.08,10.0,SE,9.2,-,N/A,,Scattered Clouds,140,2012-11-16 05:55:00
10:15 PM,53.6,26.6,35,30.07,10.0,SSE,8.1,-,N/A,,Mostly Cloudy,150,2012-11-16 06:15:00
10:35 PM,53.6,26.6,35,30.06,10.0,SE,10.4,-,N/A,,Mostly Cloudy,130,2012-11-16 06:35:00
10:55 PM,55.4,24.8,31,30.05,10.0,SE,9.2,-,N/A,,Mostly Cloudy,130,2012-11-16 06:55:00
11:15 PM,55.4,24.8,31,30.05,10.0,ESE,8.1,-,N/A,,Mostly Cloudy,120,2012-11-16 07:15:00
11:35 PM,55.4,26.6,33,30.05,10.0,ESE,8.1,-,N/A,,Scattered Clouds,110,2012-11-16 07:35:00
11:55 PM,53.6,26.6,35,30.05,10.0,Calm,Calm,-,N/A,,Mostly Cloudy,0,2012-11-16 07:55:00